This demonstration page uses our WeatherBlox Daily Observations layout. Learn more.

Left ArrowRight Arrow

38.89511, -77.03637

Hourly Observations for May 23, 2019

Temp ( °F °C ) Dew Point ( °F °C ) Humidity (%) Winds ( mph kmh ) Pressure ( in mb ) Visibility ( mi km ) Precip ( " mm )
12:52 am 00:52 Mostly Cloudy with Haze 64 17.8 50 10 60 60 SSW 9 15 30.24 1024 6 10 N/A
1:52 am 01:52 Mostly Cloudy with Haze 63 17.2 51 10.6 65 65 S 10 17 30.22 1023 6 10 N/A
2:52 am 02:52 Mostly Cloudy with Haze 63 17.2 50 10 63 63 SSW 10 17 30.20 1023 5 8 N/A
4:52 am 04:52 Mostly Cloudy with Haze 62 16.7 49 9.4 62 62 SSW 8 13 30.19 1022 5 8 N/A
5:52 am 05:52 Hazy 62 16.7 49 9.4 62 62 SSW 13 20 30.17 1022 5 8 N/A
6:52 am 06:52 Partly Cloudy 63 17.2 50 10 63 63 S 10 17 30.17 1022 7 11 N/A
7:52 am 07:52 Mostly Cloudy 66 18.9 53 11.7 63 63 SSW 15 24 30.17 1022 8 13 N/A
8:52 am 08:52 Mostly Cloudy 68 20 55 12.8 63 63 S 10 17 30.16 1022 9 14 N/A
9:52 am 09:52 Mostly Cloudy 71 21.7 57 13.9 61 61 SSW 13 20 30.15 1021 10 16 N/A
10:52 am 10:52 Mostly Cloudy 72 22.2 60 15.6 66 66 S 9 15 30.14 1021 10 16 N/A
11:52 am 11:52 Mostly Cloudy 75 23.9 63 17.2 66 66 S 12 19 30.12 1020 10 16 N/A
12:52 pm 12:52 Mostly Cloudy 78 25.6 65 18.3 64 64 S 10 17 30.09 1019 10 16 N/A
1:52 pm 13:52 Mostly Cloudy 82 27.8 68 20 63 63 S 14 22 30.05 1018 10 16 N/A
2:52 pm 14:52 Mostly Cloudy 83 28.3 69 20.6 63 63 S 17 28 30.01 1016 10 16 N/A
3:41 pm 15:41 Mostly Cloudy with Thunderstorms 84 28.9 68 20 59 59 SSW 10 17 30.02 1016 10 16 N/A
3:47 pm 15:47 Very Windy with Storms Likely 81 27 66 19 62 62 WNW 44 70 30.10 1019 2 2 N/A
3:50 pm 15:50 Cloudy with Thunderstorms 73 23 64 18 74 74 NW 17 28 30.08 1019 1 1 N/A
3:52 pm 15:52 Cloudy with Strong Thunderstorms 70 21.1 65 18.3 84 84 NW 29 46 30.07 1018 1 1 N/A
4:00 pm 16:00 Cloudy with Thunderstorms 69 20.6 65 18.3 87 87 WSW 15 24 30.06 1018 6 10 0.15 3.81
4:16 pm 16:16 Cloudy 70 21.1 65 18.3 84 84 SSE 7 11 30.04 1017 10 16 0.15 3.81
4:44 pm 16:44 Mostly Cloudy with Nearby Thunderstorms 72 22.2 66 18.9 82 82 SSE 10 17 30.01 1016 10 16 0.15 3.81
4:52 pm 16:52 Mostly Cloudy with Nearby Thunderstorms 73 22.8 68 20 84 84 S 13 20 30.01 1016 10 16 0.15 3.81
5:01 pm 17:01 Mostly Cloudy with Thunderstorms 72 22.2 66 18.9 82 82 S 15 24 30.01 1016 10 16 N/A
5:43 pm 17:43 Cloudy 73 22.8 66 18.9 79 79 SW 8 13 30.00 1016 10 16 N/A
5:52 pm 17:52 Cloudy 73 22.8 67 19.4 81 81 S 9 15 29.99 1016 10 16 N/A
7:52 pm 19:52 Mostly Cloudy 72 22.2 68 20 87 87 S 9 15 29.97 1015 10 16 N/A
8:52 pm 20:52 Mostly Cloudy 72 22.2 68 20 87 87 S 8 13 29.97 1015 10 16 N/A
9:52 pm 21:52 Mostly Cloudy 71 21.7 68 20 90 90 S 7 11 29.96 1015 10 16 N/A
10:52 pm 22:52 Partly Cloudy 71 21.7 68 20 90 90 S 6 9 29.96 1015 10 16 N/A
11:52 pm 23:52 Mostly Cloudy 71 21.7 68 20 90 90 S 8 13 29.94 1014 10 16 N/A

Powered by AerisWeather